Theta_e
339 341 344 344 343 343 343 344 345 346 346 347 346 345 345 346 346 346 346 346 346 345 343 341 341 341 338 335 333 334 333 333
338 338 340 341 343 341 341 342 342 342 344 344 342 342 343 343 343 344 344 345 344 343 341 340 340 337 334 333 333 332 332 332
337 337 336 335 338 342 342 343 341 340 340 340 338 340 340 341 340 341 342 341 341 341 340 338 336 334 333 332 333 331 332 333
337 336 336 335 339 339 338 342 340 339 339 338 338 337 337 340 338 338 339 339 339 339 338 336 333 329 329 331 329 331 332 332
338 337 336 336 336 335 336 338 337 337 337 336 335 336 335 334 333 335 333 337 335 335 334 329 327 326 327 328 328 331 330 332
339 338 337 337 337 335 335 336 335 336 337 335 335 335 333 331 331 331 330 329 333 333 331 326 325 326 327 327 327 329 329 331
340 340 338 339 338 336 335 335 335 335 335 336 336 334 334 332 330 330 330 330 330 329 325 325 324 325 326 326 326 328 329 330
341 340 340 339 338 338 336 336 336 335 335 336 336 334 333 332 331 330 329 330 329 328 326 324 323 322 323 324 325 328 328 328
341 341 340 339 338 339 338 337 338 336 336 335 335 334 331 331 331 330 330 330 327 326 324 322 320 322 321 323 326 327 327 328
339 342 340 339 338 339 339 337 338 336 336 336 335 334 333 330 329 329 328 329 328 326 326 324 323 324 320 321 323 327 328 328
336 339 339 338 338 338 338 336 336 335 333 335 335 335 333 331 330 328 328 327 327 327 326 326 324 323 323 323 325 325 327 329
334 337 337 339 338 336 335 333 332 334 333 332 332 335 333 330 328 328 330 330 327 326 326 326 325 323 323 324 324 325 327 327
330 334 336 338 336 333 331 331 330 330 332 332 330 331 332 331 329 327 327 328 328 328 327 325 323 325 323 322 321 323 325 325
328 333 336 337 337 336 333 332 328 330 329 330 331 329 330 329 328 327 327 326 326 327 326 323 324 325 319 318 312 316 322 323
324 331 336 337 337 334 328 326 325 323 326 328 328 330 330 330 328 327 325 326 326 325 325 324 320 322 322 317 310 309 315 320
316 322 333 336 337 333 330 329 326 328 328 328 328 329 329 329 328 326 325 326 325 324 325 323 321 318 321 321 318 316 311 309
310 313 318 332 333 334 331 330 331 324 325 324 327 327 328 328 326 323 321 320 319 321 322 321 321 319 319 316 317 315 315 313
304 306 309 315 322 331 331 329 327 324 324 324 325 325 324 326 325 323 321 318 317 318 321 321 320 321 321 318 316 314 312 313
302 302 304 308 311 321 330 331 327 325 325 325 324 323 323 325 324 322 319 319 319 318 319 320 320 320 318 318 318 316 315 313
298 301 303 307 308 312 329 330 327 327 325 326 324 324 324 324 325 323 320 319 320 318 318 319 320 320 318 318 317 317 317 316
Wind_Speed
9 8 10 13 14 15 14 15 14 13 11 11 11 11 11 11 11 10 10 9 11 12 12 12 12 10 10 10 9 12 6 3
11 7 7 7 9 14 14 15 14 12 13 12 10 10 11 11 11 11 11 10 11 12 12 10 10 9 10 11 10 7 5 5
10 10 7 6 6 9 11 14 14 12 9 10 8 4 6 8 8 11 11 11 11 11 11 11 9 8 10 10 8 3 4 3
9 9 9 7 6 7 6 8 7 7 6 6 4 5 4 6 7 11 10 12 12 11 11 11 9 4 4 8 3 3 5 5
11 10 9 10 7 5 4 4 5 5 7 6 5 4 4 3 3 4 4 9 4 6 6 4 6 4 4 4 4 5 2 2
15 14 12 10 6 7 6 6 6 6 7 8 6 4 5 4 4 5 5 4 8 7 4 4 5 5 5 5 4 3 3 2
17 16 16 14 11 8 7 7 7 7 8 8 7 6 7 6 5 5 5 5 6 7 5 4 5 5 5 5 5 5 5 3
17 17 15 15 14 13 9 7 7 7 7 8 9 7 7 7 6 6 6 6 6 6 7 6 5 4 5 5 5 4 5 5
18 18 16 16 16 13 10 8 8 7 7 9 10 9 8 8 7 6 7 6 6 5 5 4 4 4 5 4 4 4 6 8
16 14 17 18 16 13 10 10 9 8 7 8 11 9 9 7 7 6 6 6 7 7 8 7 5 6 4 4 4 4 6 8
17 18 18 18 15 11 11 11 9 9 7 8 10 10 10 8 7 6 8 6 6 7 6 8 7 6 5 4 3 5 6 6
19 17 18 18 11 6 6 7 6 8 8 8 10 9 10 8 6 7 8 7 7 6 8 8 6 6 6 5 5 5 6 5
17 19 18 13 11 10 8 12 9 7 7 10 10 8 9 9 7 8 8 9 9 9 7 8 5 7 4 4 4 5 6 5
13 19 18 17 13 12 7 8 4 6 5 8 10 9 8 9 9 9 9 6 8 10 9 4 4 7 3 2 2 2 6 7
4 12 20 19 18 8 5 5 4 3 5 7 8 11 10 9 9 8 9 8 9 10 10 11 6 5 8 3 3 4 5 4
14 9 5 12 18 14 16 14 11 9 9 8 9 12 11 9 10 9 9 7 9 10 7 7 5 7 4 8 2 3 6 4
12 13 12 5 7 12 15 15 11 3 7 12 12 10 11 10 11 10 9 7 7 9 7 7 6 5 6 3 7 3 1 5
11 13 10 10 8 7 9 11 7 8 10 10 10 9 7 9 10 10 9 7 8 6 6 8 8 6 6 6 5 7 6 7
12 13 15 13 10 9 11 14 13 15 14 12 12 9 7 9 11 10 8 8 7 6 7 8 8 8 8 6 4 2 2 4
16 15 12 14 13 13 12 13 11 11 12 9 9 10 10 10 11 11 10 9 9 8 6 6 8 7 9 7 5 5 5 6
Wind_Direction
149 157 158 153 151 153 157 154 157 166 169 173 172 166 165 165 165 158 159 153 142 147 150 156 163 169 116 132 129 115 123 137
148 149 157 161 158 154 161 159 161 173 167 176 176 172 167 171 168 164 163 157 147 156 158 169 171 170 128 142 138 106 136 154
152 157 156 156 153 164 164 164 162 168 172 164 168 177 174 178 167 166 165 155 155 161 161 167 164 146 125 134 142 132 134 142
162 166 163 156 164 165 167 168 166 160 160 162 156 171 177 169 163 163 163 156 154 161 160 160 152 138 122 129 142 218 157 163
173 171 169 166 170 171 172 168 165 164 161 161 164 164 175 165 152 155 158 146 148 147 153 160 163 153 159 151 148 135 107 157
173 171 174 177 166 179 181 178 175 172 174 172 167 172 176 171 168 163 162 151 154 166 180 168 170 167 164 163 158 127 142 154
181 174 175 175 174 180 184 189 187 180 175 178 171 177 182 169 173 170 172 159 163 168 164 173 169 171 169 164 160 162 168 162
180 185 184 177 178 180 183 186 184 185 181 181 176 176 177 177 172 179 176 179 169 164 170 171 181 166 183 179 181 180 185 177
184 184 182 185 185 181 180 182 178 186 185 178 176 178 175 176 172 175 183 177 159 148 147 136 148 164 192 184 173 187 182 184
193 189 187 187 186 185 184 178 180 180 178 179 179 181 174 175 176 178 164 163 169 170 171 173 176 189 183 189 194 190 177 182
192 190 188 194 191 184 184 177 176 173 168 177 178 182 180 176 178 171 162 157 166 170 176 182 181 190 201 186 195 198 183 175
185 192 193 191 188 163 157 164 177 176 176 175 172 181 177 172 166 165 167 165 164 172 183 189 183 184 201 191 207 209 177 171
182 184 193 180 175 173 174 187 180 182 184 170 175 173 175 170 171 169 169 177 174 181 181 188 184 182 162 197 198 191 179 185
182 186 183 186 183 191 180 167 183 177 172 178 177 177 173 171 176 182 179 171 173 186 177 163 183 173 169 170 185 158 196 196
279 202 183 188 188 157 120 95 86 113 198 190 187 183 186 180 183 180 176 178 193 198 187 179 188 184 190 164 170 195 150 174
23 13 244 205 178 171 170 178 174 198 188 185 179 183 185 181 179 183 180 183 184 189 184 183 156 195 194 215 191 177 169 160
15 11 11 302 235 207 177 183 191 131 164 173 182 181 182 181 177 177 181 180 184 169 172 185 200 195 200 165 217 173 108 168
14 8 358 342 336 237 212 197 172 166 173 179 177 179 174 179 178 178 178 177 172 172 177 198 197 200 200 196 187 189 162 158
16 6 345 333 319 286 223 196 188 185 185 185 177 179 186 182 174 177 173 175 168 162 191 203 198 199 184 182 178 200 131 112
359 357 348 327 304 281 237 217 190 195 196 185 184 188 187 171 177 174 171 172 166 164 197 200 194 188 180 178 168 160 166 148